Tracking 30995 objects as of 5-Jul-2025
HD Live streaming from Space Station
objects crossing your sky now

BREEZE-M DEB (TANK)

Track BREEZE-M DEB (TANK) now!
10-day predictions


NORAD ID: 37828
Int'l Code: 2011-054C
Perigee: 325.0 km
Apogee: 16,617.0 km
Inclination: 49.4 °
Period: 299.9 minutes
Semi major axis: 14842 km
RCS: 6.7148 m2 (large)
Launch date: September 29, 2011
Source: Commonwealth of Independent States (former USSR) (CIS)
Launch site: TYURATAM MISSILE AND SPACE COMPLEX (TTMTR)

Note: This is SATELLITE DEBRIS
Your satellite tracking list
Your tracking list is empty




NASA's NSSDC Master Catalog

Two Line Element Set (TLE):
1 37828U 11054C   25186.05057952  .00002805  00000-0  73132-3 0  9998
2 37828  49.4480 206.2594 5488472 323.1081   9.4818  4.80135623231326
Source of the keplerian elements: AFSPC